[[{"header":{"parameterUnit":"m.s-1","parameterCategory":1,"la1":30.2991,"la2":30.254,"lo1":-89.0895,"lo2":-89.0444,"dy":0.0017,"dx":0.0017,"nx":28,"ny":28,"refTime":"2025-09-01T09:00:00:Z","depth":0,"parameterNumber":2,"parameterNumberName":"U-component_of_WINDS"},"data":[0,0,0,0,0,0,0,0,0,0,0,0,0,0,0,0,0,0,0,0,0,0,0,0,0,0,0,0,0,0,0,0,0,0,0,0,0,0,0,0,0,0,0,0,0,0,0,0,0,0,0,0,0,0,0,0,0,0,-4.5806,-4.5806,0,-4.5809,-4.5809,-4.5809,-4.5679,-4.5675,-4.5672,-4.5668,-4.5673,-4.5676,-4.5679,0,0,0,0,0,0,0,0,0,0,0,0,0,-4.5689,-4.5692,-4.5806,-4.5806,-4.5806,-4.5809,-4.5809,-4.5809,-4.5679,-4.5675,-4.5671,-4.5667,-4.5672,-4.5676,-4.568,0,0,0,0,0,0,0,0,0,0,0,0,0,-4.5721,-4.5693,-4.5806,-4.5742,-4.5736,-4.5809,-4.5809,-4.5809,-4.568,-4.5675,-4.567,-4.5665,-4.567,-4.5675,-4.568,-4.5816,0,0,-4.5695,-4.5698,0,0,0,0,0,0,0,0,-4.5719,-4.5725,-4.5751,-4.5746,-4.574,-4.5738,-4.5769,-4.5811,-4.5681,-4.5701,-4.5668,-4.5662,-4.5699,-4.5701,-4.5713,-4.5816,-4.5816,-4.5696,-4.5699,-4.5701,-4.5703,0,0,0,0,0,0,0,-4.5717,-4.5724,-4.5807,-4.5752,-4.5745,-4.5713,-4.5712,-4.5777,-4.5729,-4.5699,-4.569,-4.5692,-4.5695,-4.5709,-4.5712,-4.5816,-4.5696,-4.57,-4.5703,-4.5705,-4.603,-4.6036,0,0,0,0,0,0,-4.5724,-4.5723,-4.5807,-4.5807,-4.5716,-4.5719,-4.5718,-4.5744,-4.5728,-4.5721,-4.5696,-4.5686,-4.5703,-4.5707,-4.5712,-4.587,-4.5701,-4.5706,-4.5709,-4.6025,-4.6032,-4.6038,0,0,0,0,0,0,-4.5722,-4.5732,-4.5807,-4.5763,-4.577,-4.5727,-4.5757,-4.5747,-4.576,-4.5726,-4.5717,-4.5719,-4.5699,-4.5705,-4.5791,-4.5868,-4.5708,-4.5713,-4.6018,-4.6027,-4.6035,-4.6187,0,0,0,0,0,0,-4.5719,-4.5732,-4.5783,-4.5765,-4.5773,-4.5886,-4.5762,-4.5751,-4.5769,-4.5756,-4.5745,-4.5738,-4.5695,-4.5784,-4.5796,-4.5872,-4.5717,-4.6011,-4.6022,-4.6032,-4.6175,-4.62,-4.6221,0,0,0,0,0,-4.5715,-4.5826,-4.5786,-4.5797,-4.5835,-4.5891,-4.5895,-4.5843,-4.5776,-4.5827,-4.5805,-4.5739,-4.5858,-4.5794,-4.5806,-4.5885,-4.6006,-4.6019,-4.6031,-4.6165,-4.6195,-4.622,0,0,0,0,0,0,-4.5854,-4.5822,-4.5778,-4.5886,-4.5892,-4.5869,-4.5931,-4.5876,-4.5901,-4.5888,-4.5822,-4.5821,-4.5917,-4.5909,-4.5839,-4.6016,-4.592,-4.5936,-4.6017,-4.6046,-4.6068,-4.6068,-4.5721,0,0,0,0,0,-4.5898,-4.5945,-4.5914,-4.6013,-4.6018,-4.5975,-4.5997,-4.5956,-4.596,-4.5962,-4.5945,-4.5952,-4.5991,-4.6018,-4.6051,-4.6173,-4.6169,-4.6234,-4.6256,-4.6275,-4.629,-4.6355,-4.6383,-4.6079,-4.6079,-4.6079,0,0,-4.5988,-4.5976,-4.601,-4.6041,-4.604,-4.6092,-4.5978,-4.6036,-4.6074,-4.597,-4.6051,-4.604,-4.6042,-4.6147,-4.6192,-4.6144,-4.6373,-4.6292,-4.6307,-4.6311,-4.6371,-4.6399,-4.6425,-4.6088,-4.6086,-4.6085,0,0,-4.6178,-4.6174,-4.6255,-4.6258,-4.6259,-4.6229,-4.6249,-4.6234,-4.6222,-4.6302,-4.6226,-4.6269,-4.6337,-4.6343,-4.6354,-4.6548,-4.6488,-4.6561,-4.6681,-4.6744,-4.6768,-4.6789,-4.6859,-4.6885,-4.6575,-4.6575,-4.6576,0,-4.629,-4.6363,-4.6305,-4.6369,-4.6385,-4.6294,-4.6376,-4.6381,-4.6394,-4.6408,-4.6353,-4.6436,-4.6432,-4.6537,-4.6584,-4.6596,-4.6618,-4.6562,-4.677,-4.679,-4.6809,-4.6874,-4.6901,-4.6584,-4.6583,-4.6582,-4.6582,0,-4.6501,-4.6553,-4.6619,-4.6634,-4.6657,-4.6731,-4.6684,-4.6714,-4.6672,-4.6648,-4.6731,-4.6722,-4.6753,-4.6775,-4.6734,-4.6875,-4.6844,-4.6781,-4.6683,-4.6847,-4.6908,-4.6933,-4.6597,-4.6594,-4.6591,-4.6589,0,0,-4.6779,-4.676,-4.6786,-4.6791,-4.6786,-4.6826,-4.6895,-4.6925,-4.6953,-4.6965,-4.7022,-4.7082,-4.7023,-4.7037,-4.6995,-4.7051,-4.7206,-4.698,-4.698,-4.7023,-4.7362,-4.741,-4.744,-4.7166,-4.7171,-4.7174,-4.7362,0,-4.6964,-4.7081,-4.7031,-4.7153,-4.7201,-4.7116,-4.7176,-4.718,-4.716,-4.7198,-4.7176,-4.722,-4.7138,-4.7146,-4.7198,-4.7177,-4.7273,-4.7162,-4.7219,-4.7222,-4.7222,-4.7472,-4.7523,-4.77,-4.7385,-4.7389,-4.7392,0,-4.7195,-4.7217,-4.7344,-4.7331,-4.7349,-4.7405,-4.7428,-4.7466,-4.7469,-4.745,-4.7466,-4.7412,-4.748,-4.7383,-4.7476,-4.7402,-4.7422,-4.7415,-4.7421,-4.7424,-4.7317,-4.7483,-4.7755,-4.7782,-4.7428,-4.7425,-4.7423,0,-4.7386,-4.7447,-4.7531,-4.7538,-4.7525,-4.7566,-4.7563,-4.756,-4.7582,-4.7603,-4.7616,-4.7645,-4.7661,-4.7685,-4.7641,-4.7574,-4.774,-4.7639,-4.7727,-4.7729,-4.7766,-4.7765,-4.8046,-4.7779,-4.7779,-4.7778,-4.7778,0,-4.7598,-4.768,-4.7617,-4.7669,-4.7758,-4.7699,-4.7789,-4.7776,-4.7775,-4.7823,-4.7751,-4.7798,-4.7736,-4.7778,-4.7744,-4.7826,-4.7834,-4.7821,-4.7811,-4.7828,-4.783,-4.7841,-4.7828,-4.7785,-4.7784,-4.7782,-4.7781,0,-4.7826,-4.7787,-4.7873,-4.7854,-4.7851,-4.7918,-4.7901,-4.7949,-4.7924,-4.7986,-4.7997,-4.7958,-4.8003,-4.7961,-4.8004,-4.7981,-4.8092,-4.8064,-4.8091,-4.8083,-4.8174,-4.8166,-4.8473,-4.851,-4.8219,-4.8222,-4.8224,0,-4.7964,-4.8025,-4.8012,-4.8039,-4.804,-4.8085,-4.8106,-4.8052,-4.8077,-4.8086,-4.8133,-4.8171,-4.8199,-4.8275,-4.8251,-4.8283,-4.8256,-4.8361,-4.826,-4.8276,-4.8258,-4.8255,-4.8262,-4.8382,-4.8385,-4.8388,-4.8391,0,-4.8214,-4.8192,-4.8225,-4.8253,-4.8281,-4.83,-4.8314,-4.834,-4.8284,-4.8316,-4.8361,-4.8383,-4.8427,-4.8467,-4.8492,-4.8488,-4.8431,-4.8423,-4.8445,-4.8463,-4.8476,-4.8471,-4.8147,-4.8416,-4.8413,-4.8411,-4.841,-4.8409,-4.8401,-4.8452,-4.8451,-4.8491,-4.8495,-4.851,-4.8554,-4.8535,-4.8571,-4.8602,-4.8568,-4.8623,-4.8625,-4.8653,-4.8656,-4.8699,-4.8655,-4.8687,-4.8695,-4.8704,-4.8717,-4.8469,-4.8703,-4.8702,-4.8702,-4.8701,-4.8701,0,-4.8647,-4.8643,-4.868,-4.8702,-4.8734,-4.8677,-4.8689,-4.872,-4.8769,-4.8776,-4.8805,-4.8857,-4.8895,-4.8875,-4.8908,-4.8946,-4.8921,-4.8957,-4.8954,-4.8954,-4.8755,-4.8732,-4.8977,-4.8977,-4.8977,-4.8977,-4.8977,-4.8977,-4.8779,-4.8861,-4.884,-4.8924,-4.8918,-4.8972,-4.8984,-4.8997,-4.9002,-4.9063,-4.9095,-4.9081,-4.9077,-4.9109,-4.9142,-4.9135,-4.9151,-4.9197,-4.9181,-4.8995,-4.8968,-4.8942,-4.8921,-4.9201,-4.9201,-4.9376,-4.9378,-4.9379]},{"header":{"parameterUnit":"m.s-1","parameterCategory":1,"la1":30.2991,"la2":30.254,"lo1":-89.0895,"lo2":-89.0444,"dy":0.0017,"dx":0.0017,"nx":28,"ny":28,"refTime":"2025-09-01T09:00:00:Z","depth":0,"parameterNumber":3,"parameterNumberName":"V-component_of_WINDS"},"data":[0,0,0,0,0,0,0,0,0,0,0,0,0,0,0,0,0,0,0,0,0,0,0,0,0,0,0,0,0,0,0,0,0,0,0,0,0,0,0,0,0,0,0,0,0,0,0,0,0,0,0,0,0,0,0,0,0,0,-1.4278,-1.4278,0,-1.428,-1.428,-1.428,-1.4251,-1.425,-1.4249,-1.4249,-1.4251,-1.4252,-1.4253,0,0,0,0,0,0,0,0,0,0,0,0,0,-1.425,-1.4251,-1.4278,-1.4278,-1.4278,-1.428,-1.428,-1.428,-1.4251,-1.425,-1.4249,-1.4248,-1.4251,-1.4252,-1.4253,0,0,0,0,0,0,0,0,0,0,0,0,0,-1.4258,-1.4251,-1.4278,-1.4264,-1.4263,-1.428,-1.428,-1.428,-1.4251,-1.425,-1.4249,-1.4248,-1.4251,-1.4252,-1.4253,-1.4284,0,0,-1.4257,-1.4257,0,0,0,0,0,0,0,0,-1.4258,-1.4259,-1.4266,-1.4265,-1.4264,-1.4264,-1.4271,-1.4281,-1.4252,-1.4256,-1.4249,-1.4247,-1.4257,-1.4257,-1.426,-1.4284,-1.4284,-1.4257,-1.4258,-1.4258,-1.4258,0,0,0,0,0,0,0,-1.4257,-1.4259,-1.4279,-1.4266,-1.4265,-1.4258,-1.4257,-1.4273,-1.4263,-1.4255,-1.4253,-1.4254,-1.4256,-1.4259,-1.426,-1.4284,-1.4257,-1.4258,-1.4259,-1.4259,-1.4332,-1.4333,0,0,0,0,0,0,-1.4259,-1.4259,-1.4279,-1.4279,-1.4258,-1.4259,-1.4259,-1.4265,-1.4262,-1.4261,-1.4255,-1.4252,-1.4258,-1.4259,-1.426,-1.4295,-1.4258,-1.4259,-1.426,-1.4331,-1.4333,-1.4334,0,0,0,0,0,0,-1.4258,-1.4261,-1.4279,-1.4268,-1.427,-1.4261,-1.4268,-1.4266,-1.4269,-1.4262,-1.426,-1.426,-1.4257,-1.4258,-1.4278,-1.4295,-1.426,-1.4261,-1.433,-1.4332,-1.4333,-1.4367,0,0,0,0,0,0,-1.4257,-1.4261,-1.4272,-1.4269,-1.4271,-1.4297,-1.4269,-1.4267,-1.4271,-1.4268,-1.4266,-1.4265,-1.4256,-1.4276,-1.4279,-1.4296,-1.4262,-1.4328,-1.433,-1.4333,-1.4364,-1.4369,-1.4374,0,0,0,0,0,-1.4257,-1.4282,-1.4273,-1.4276,-1.4285,-1.4298,-1.4299,-1.4287,-1.4273,-1.4284,-1.4279,-1.4265,-1.4293,-1.4278,-1.4281,-1.4299,-1.4327,-1.433,-1.4332,-1.4362,-1.4368,-1.4374,0,0,0,0,0,0,-1.4289,-1.4281,-1.4271,-1.4296,-1.4298,-1.4293,-1.4307,-1.4295,-1.4301,-1.4298,-1.4284,-1.4284,-1.4305,-1.4304,-1.4289,-1.4328,-1.4307,-1.4311,-1.4328,-1.4334,-1.4339,-1.4339,-1.4263,0,0,0,0,0,-1.4299,-1.4309,-1.4302,-1.4325,-1.4326,-1.4317,-1.4322,-1.4313,-1.4314,-1.4314,-1.4311,-1.4313,-1.4322,-1.4328,-1.4336,-1.4363,-1.4362,-1.4377,-1.4382,-1.4386,-1.4389,-1.4403,-1.4409,-1.4343,-1.4343,-1.4343,0,0,-1.432,-1.4317,-1.4325,-1.4332,-1.4332,-1.4343,-1.4317,-1.4331,-1.4339,-1.4316,-1.4335,-1.4332,-1.4333,-1.4357,-1.4367,-1.4356,-1.4407,-1.4389,-1.4393,-1.4394,-1.4406,-1.4413,-1.4418,-1.4345,-1.4345,-1.4344,0,0,-1.4363,-1.4363,-1.4381,-1.4381,-1.4381,-1.4374,-1.4379,-1.4375,-1.4373,-1.439,-1.4373,-1.4383,-1.4399,-1.44,-1.4403,-1.4445,-1.4432,-1.4448,-1.4475,-1.4488,-1.4493,-1.4498,-1.4513,-1.4519,-1.4451,-1.4451,-1.4451,0,-1.439,-1.4406,-1.4392,-1.4406,-1.441,-1.4389,-1.4407,-1.4408,-1.4411,-1.4414,-1.4402,-1.442,-1.442,-1.4443,-1.4453,-1.4456,-1.446,-1.4449,-1.4494,-1.4498,-1.4502,-1.4516,-1.4522,-1.4453,-1.4453,-1.4453,-1.4453,0,-1.4438,-1.4449,-1.4464,-1.4466,-1.4471,-1.4488,-1.4477,-1.4483,-1.4473,-1.4468,-1.4486,-1.4484,-1.449,-1.4495,-1.4486,-1.4517,-1.451,-1.4496,-1.4475,-1.4511,-1.4524,-1.4529,-1.4456,-1.4455,-1.4455,-1.4454,0,0,-1.4503,-1.4497,-1.4502,-1.4503,-1.45,-1.4509,-1.4524,-1.453,-1.4536,-1.4538,-1.455,-1.4564,-1.455,-1.4553,-1.4544,-1.4556,-1.4589,-1.454,-1.454,-1.4549,-1.4623,-1.4633,-1.464,-1.458,-1.4581,-1.4582,-1.4622,0,-1.4545,-1.4571,-1.4558,-1.4585,-1.4595,-1.4574,-1.4587,-1.4587,-1.4582,-1.459,-1.4584,-1.4594,-1.4576,-1.4577,-1.4588,-1.4583,-1.4604,-1.458,-1.4592,-1.4592,-1.4592,-1.4647,-1.4658,-1.4697,-1.4627,-1.4628,-1.4629,0,-1.4599,-1.4602,-1.463,-1.4625,-1.4628,-1.464,-1.4644,-1.4652,-1.4651,-1.4647,-1.4649,-1.4637,-1.4651,-1.4629,-1.4649,-1.4633,-1.4636,-1.4635,-1.4636,-1.4637,-1.4613,-1.4649,-1.4709,-1.4714,-1.4637,-1.4636,-1.4636,0,-1.4643,-1.4655,-1.4673,-1.4674,-1.4668,-1.4677,-1.4675,-1.4673,-1.4677,-1.4681,-1.4683,-1.4688,-1.4691,-1.4696,-1.4685,-1.467,-1.4705,-1.4683,-1.4702,-1.4702,-1.4711,-1.4711,-1.4772,-1.4713,-1.4713,-1.4713,-1.4713,0,-1.4692,-1.471,-1.4692,-1.4704,-1.4722,-1.4708,-1.4727,-1.4723,-1.4721,-1.4731,-1.4713,-1.4723,-1.4708,-1.4716,-1.4708,-1.4725,-1.4726,-1.4723,-1.472,-1.4724,-1.4725,-1.4727,-1.4724,-1.4714,-1.4714,-1.4714,-1.4714,0,-1.4746,-1.4735,-1.4753,-1.4745,-1.4744,-1.4758,-1.4752,-1.4762,-1.4755,-1.4768,-1.477,-1.4759,-1.4767,-1.4757,-1.4765,-1.4759,-1.4782,-1.4776,-1.4782,-1.478,-1.48,-1.4798,-1.4865,-1.4873,-1.4809,-1.481,-1.481,0,-1.4778,-1.4791,-1.4784,-1.4789,-1.4788,-1.4797,-1.48,-1.4786,-1.479,-1.479,-1.48,-1.4806,-1.4811,-1.4826,-1.4819,-1.4824,-1.4818,-1.4841,-1.4819,-1.4822,-1.4818,-1.4818,-1.4819,-1.4846,-1.4846,-1.4847,-1.4848,0,-1.4836,-1.4829,-1.4835,-1.4839,-1.4843,-1.4846,-1.4847,-1.4852,-1.4837,-1.4843,-1.485,-1.4854,-1.4861,-1.4868,-1.4872,-1.487,-1.4856,-1.4854,-1.4859,-1.4864,-1.4867,-1.4865,-1.4795,-1.4853,-1.4853,-1.4852,-1.4852,-1.4852,-1.4879,-1.4889,-1.4886,-1.4893,-1.4892,-1.4893,-1.4902,-1.4895,-1.4901,-1.4906,-1.4897,-1.4907,-1.4905,-1.4908,-1.4908,-1.4916,-1.4906,-1.4913,-1.4914,-1.4916,-1.4919,-1.4865,-1.4916,-1.4916,-1.4916,-1.4916,-1.4916,0,-1.4936,-1.4933,-1.4939,-1.494,-1.4946,-1.4931,-1.4931,-1.4937,-1.4946,-1.4945,-1.4949,-1.4958,-1.4965,-1.4958,-1.4963,-1.497,-1.4964,-1.4972,-1.4972,-1.4971,-1.4928,-1.4923,-1.4977,-1.4977,-1.4977,-1.4977,-1.4977,-1.4977,-1.4966,-1.4983,-1.4976,-1.4991,-1.4987,-1.4997,-1.4998,-1.4999,-1.4998,-1.5008,-1.5013,-1.5008,-1.5005,-1.5009,-1.5014,-1.5012,-1.5015,-1.5025,-1.5021,-1.498,-1.4974,-1.4969,-1.4964,-1.5026,-1.5026,-1.5063,-1.5064,-1.5064]}]]